星链-36246(STARLINK-36246)

导读 | 豆包AI

STARLINK-36246(NORAD编号67939)是SpaceX星链互联网卫星星座中的一颗近地轨道卫星,属于SpaceX大规模卫星互联网组网计划的组成部分。 2026年1月,SpaceX宣布为提升太空安全,计划在年内将包含该卫星在内的约4400颗星链卫星轨道高度从550公里降至480公里,降低轨道可让故障卫星更快坠入大气层销毁,减少太空碰撞风险与空间碎片产生,应对近地轨道日益拥挤带来的凯斯勒现象担忧。

Basic Information
目录编号:
67939
目录名称:
STARLINK-36246
国际标识:
2026-037H
轨道中心:
EARTH
卫星名称:
星链-36246
卫星全名:
星链-36246(STARLINK-36246)
卫星状态:
在轨 (已飞行90 天)
发射日期:
2026-02-24 UTC
国别 :
美国 (US)
星等 :
--
Orbit Information
数据来源 国际轨道数据 AOE轨道数据
星历时间 2026-05-25T13:13:09+0800
5小时前
查看轨道信息
2026-05-24T11:00:00+0800
1天前
查看轨道信息
半长轴 6861.158km 6861.226km
偏心率 0.0000775 0.0001514
轨道倾角 43.001° 43.000°
近地点辐角 269.466° 253.339°
升交点赤经 118.635° 124.804°
平近点角 90.611° 211.893°
近地点 482.489km 482.05km
远地点 483.553km 484.128km
周期 94.266分钟 94.268分钟
每日圈数 15.275896 15.275668
Detailed Information
固有亮度:
5
最大亮度:
2.5
卫星平台:
Starlink V1.0
覆盖范围:
全球
运营商:
太空探索技术公司
运营商所在国:
美国
制造商(研发单位):
太空探索技术公司
制造商所在国:
美国
使用方式:
暂无
Satellite Introduction
Starlink 计划是 SpaceX 推出的全球卫星互联网项目,通过发射低轨道卫星,为全球尤其是偏远地区提供高速、低延迟的互联网服务。自 2019 年起,Starlink 已部署数千颗卫星,旨在缩小全球数字鸿沟,推动互联网普及。该项目还为军事、航空等行业提供通信支持,带来广泛经济效益。
2D Orbit Map
3D Orbit Map
Orbit Altitude Analysis Chart
Orbit Inclination Analysis Chart
Orbit Comprehensive Analysis Chart
View Comprehensive Chart